Track ONEWEB-0368 now! 10-day predictions ONEWEB-0368 is classified as:
1 49294U 21090R 22144.91667824 -.00033759 00000-0 -13751-1 0 9993 2 49294 87.7837 223.0732 0001238 172.2423 182.5832 14.27806907 1301